Weather History for KGTF - July, 2014

Change the Weather History Date:

Tuesday, July 29, 2014

  Actual Average Record
Temperature  
Mean Temperature 76 °F 69 °F  
Max Temperature 94 °F 86 °F 102 °F (1934)
Min Temperature 57 °F 53 °F 45 °F (1971)
Degree Days  
Heating Degree Days 0 1  
Month to date heating degree days 5 48  
Since 1 June heating degree days 228 239  
Since 1 July heating degree days 5 48  
Cooling Degree Days 11 5  
Month to date cooling degree days 155 115  
Year to date cooling degree days 155 154  
Since 1 June cooling degree days 155 147  
Growing Degree Days 24 (Base 50)    
Moisture  
Dew Point 46 °F    
Average Humidity 44    
Maximum Humidity 72    
Minimum Humidity 16    
Precipitation  
Precipitation 0.00 in 0.04 in 0.24 in (1905)
Month to date precipitation 0.78 1.43  
Year to date precipitation 12.07 9.69  
Snow  
Snow 0.00 in 0.00 in 0.00 in (2002)
Month to date snowfall 0.0 0.0  
Since 1 June snowfall 0.0 0.3  
Since 1 July snowfall 0.0 0.0  
Snow Depth 0.00 in    
Sea Level Pressure  
Sea Level Pressure 30.08 in    
Wind  
Wind Speed 6 mph (SE)    
Max Wind Speed 20 mph    
Max Gust Speed 25 mph    
Visibility 10 miles    
Events      
T = Trace of Precipitation, MM = Missing Value Source: NWS Daily Summary

Daily Weather History Graph

Daily Weather History Graph

Search for Another Location

Airport or City:

Trip Planner

Search our weather history database for the weather conditions in past years. The results will help you decide how hot, cold, wet, or windy it might be!

Date:

Astronomy

Jul. 29, 2014 Rise Set
Actual Time 5:59 AM MDT 9:03 PM MDT
Civil Twilight 5:23 AM MDT 9:39 PM MDT
Nautical Twilight 4:36 AM MDT 10:26 PM MDT
Astronomical Twilight 3:38 AM MDT 11:23 PM MDT
Moon 8:54 AM MDT (7/29) 10:00 PM MDT (7/29)
Length of Visible Light 16h 16m
Length of Day
15h 03m
Waxing Crescent, 7% of the Moon is Illuminated
Jul 29
Waxing Crescent
Aug 3
First Quarter
Aug 10
Full
Aug 17
Last Quarter
Aug 25
New

Hourly Weather History & Observations

Time (MDT) Temp. Dew Point Humidity Pressure Visibility Wind Dir Wind Speed Gust Speed Precip Events Conditions
12:53 AM 69.1 °F 48.0 °F 47% 30.08 in 10.0 mi SSE 3.5 mph - N/A   Clear
1:53 AM 72.0 °F 48.0 °F 43% 30.05 in 10.0 mi ESE 9.2 mph - N/A   Partly Cloudy
2:53 AM 66.0 °F 46.9 °F 50% 30.06 in 10.0 mi SSW 4.6 mph - N/A   Clear
3:53 AM 62.1 °F 46.9 °F 58% 30.07 in 10.0 mi North 5.8 mph - N/A   Clear
4:53 AM 59.0 °F 48.0 °F 67% 30.07 in 10.0 mi South 3.5 mph - N/A   Clear
5:53 AM 57.0 °F 48.9 °F 74% 30.09 in 10.0 mi WSW 6.9 mph - N/A   Clear
6:53 AM 60.1 °F 51.1 °F 72% 30.10 in 10.0 mi WSW 4.6 mph - N/A   Clear
7:11 AM 62.6 °F 51.8 °F 68% 30.19 in 10.0 mi Calm Calm - N/A   Partly Cloudy
7:16 AM 64.4 °F 51.8 °F 64% 30.20 in 9.0 mi SW 4.6 mph - N/A   Clear
7:53 AM 66.2 °F 48.2 °F 52% 30.20 in 10.0 mi West 3.5 mph - N/A   Clear
8:53 AM 71.1 °F 50.0 °F 47% 30.11 in 10.0 mi Variable 3.5 mph - N/A   Partly Cloudy
9:53 AM 75.9 °F 48.0 °F 37% 30.10 in 10.0 mi WSW 5.8 mph - N/A   Clear
10:53 AM 81.0 °F 46.0 °F 29% 30.09 in 10.0 mi Variable 3.5 mph - N/A   Clear
11:53 AM 84.0 °F 46.9 °F 27% 30.10 in 10.0 mi Variable 4.6 mph - N/A   Clear
12:53 PM 86.0 °F 46.0 °F 25% 30.08 in 10.0 mi East 8.1 mph - N/A   Clear
1:53 PM 90.0 °F 43.0 °F 19% 30.06 in 10.0 mi NE 8.1 mph - N/A   Clear
2:53 PM 91.0 °F 43.0 °F 19% 30.05 in 10.0 mi NE 8.1 mph - N/A   Clear
3:53 PM 91.4 °F 39.2 °F 16% 30.15 in 10.0 mi Variable 5.8 mph - N/A   Clear
4:53 PM 91.9 °F 42.1 °F 18% 30.04 in 10.0 mi ENE 12.7 mph - N/A   Partly Cloudy
5:53 PM 91.0 °F 41.0 °F 17% 30.04 in 10.0 mi ENE 12.7 mph 18.4 mph N/A   Clear
6:53 PM 90.0 °F 39.0 °F 17% 30.02 in 10.0 mi ESE 5.8 mph - N/A   Clear
7:53 PM 87.1 °F 39.0 °F 18% 30.01 in 10.0 mi East 5.8 mph - N/A   Clear
8:53 PM 80.1 °F 44.1 °F 28% 30.03 in 10.0 mi East 6.9 mph - N/A   Clear
9:53 PM 75.9 °F 43.0 °F 31% 30.05 in 10.0 mi ESE 5.8 mph - N/A   Clear
10:53 PM 71.1 °F 42.1 °F 35% 30.05 in 10.0 mi SE 5.8 mph - N/A   Clear
11:53 PM 69.1 °F 43.0 °F 39% 30.05 in 10.0 mi Calm Calm - N/A   Clear